BEIDOU-2 G4 (C04)

Last updated on Mon Jun 22 2026 00:03:30 GMT+0000 (Coordinated Universal Time)

1 37210U 10057A 26172.50531091 -.00000115 00000+0 00000+0 0 9994 2 37210 3.6588 68.9306 0005183 195.6147 347.0523 1.00270792 57337
UTC large
Height (km)
Speed (km/s)
/
Latitude / Longitude
Inclination (degrees)
Orbital Period (minutes)
Azimuth
Elevation
Range (km)
Doppler Factor

Next 0 passes for location: London (51.5072 / 0.1276)

No passes found over London.
BEIDOU-2 G4 (C04)